�N����,����,�~����,�C��,���x,�C��,����,���ϕ���,�ő�u�ԕ���,�ő厞����,���˗�,�I�_���x,�n�����x,�ő啗���N��,DTYPE
"16/09/19","00:10",0.2,22.4,96.9,1002.6,235.0,0.6,1.7,232.2,0.00,21.9,24.1,"00:07:12",1
"16/09/19","00:20",0.4,22.4,96.8,1002.6,273.2,0.3,1.0,238.7,0.00,21.9,23.9,"00:16:32",1
"16/09/19","00:30",0.0,22.5,96.9,1002.9,320.6,0.6,1.2,324.4,0.00,22.0,24.0,"00:23:28",1
"16/09/19","00:40",0.4,22.4,96.8,1003.1,325.6,0.7,1.6,336.3,0.00,21.9,24.0,"00:31:12",1
"16/09/19","00:50",1.2,22.4,96.9,1002.9,197.6,0.3,1.0,240.2,0.00,21.9,24.0,"00:49:52",1
"16/09/19","01:00",4.0,22.4,96.9,1002.4,355.5,0.7,1.3,336.0,0.00,21.9,24.0,"00:53:04",1
"16/09/19","01:10",1.6,22.4,96.9,1002.2,329.7,0.3,1.1,354.1,0.00,21.9,23.8,"01:04:32",1
"16/09/19","01:20",1.4,22.4,96.9,1002.6,299.3,0.6,0.9,319.2,0.00,21.9,23.9,"01:10:32",1
"16/09/19","01:30",1.6,22.4,97.0,1002.6,219.5,0.7,2.0,222.2,0.00,21.9,23.8,"01:27:12",1
"16/09/19","01:40",0.6,22.5,97.0,1002.2,302.4,0.3,1.0,331.3,0.00,22.0,24.0,"01:39:36",1
"16/09/19","01:50",0.4,22.4,96.9,1002.4,338.9,0.8,1.2,346.9,0.00,21.9,23.8,"01:41:52",1
"16/09/19","02:00",0.4,22.3,97.0,1002.2,278.1,0.5,0.9,322.4,0.00,21.8,24.0,"01:50:40",1
"16/09/19","02:10",0.6,22.3,97.0,1002.2,288.5,0.3,0.6,306.4,0.00,21.8,24.0,"02:07:52",1
"16/09/19","02:20",0.4,22.4,97.0,1001.9,311.5,0.3,0.8,316.5,0.00,21.9,24.0,"02:10:48",1
"16/09/19","02:30",0.6,22.3,97.0,1001.9,287.8,0.0,0.4,241.9,0.00,21.8,23.9,"02:20:16",1
"16/09/19","02:40",0.8,22.3,97.0,1001.9,143.7,0.1,0.5,129.7,0.00,21.8,23.9,"02:32:16",1
"16/09/19","02:50",0.4,22.3,97.0,1001.9,143.1,0.0,0.5,146.8,0.00,21.8,23.8,"02:45:44",1
"16/09/19","03:00",0.0,22.3,97.1,1001.9,183.9,0.1,0.5,45.6,0.00,21.9,23.9,"02:53:52",1
"16/09/19","03:10",0.2,22.3,97.1,1001.7,290.1,0.3,0.6,308.7,0.00,21.9,23.7,"03:00:40",1
"16/09/19","03:20",0.6,22.4,97.1,1002.2,296.8,0.2,0.6,317.9,0.00,22.0,23.9,"03:12:16",1
"16/09/19","03:30",1.0,22.3,97.0,1001.5,42.4,0.3,1.6,351.8,0.00,21.8,23.9,"03:28:32",1
"16/09/19","03:40",0.6,22.3,97.1,1001.9,332.9,0.6,1.6,349.1,0.00,21.9,23.7,"03:31:12",1
"16/09/19","03:50",0.6,22.2,97.1,1001.5,305.4,0.3,1.0,347.5,0.00,21.8,23.7,"03:49:52",1
"16/09/19","04:00",1.4,22.2,97.1,1002.2,280.1,0.3,0.9,346.8,0.00,21.8,24.2,"03:50:08",1
"16/09/19","04:10",1.0,22.2,97.1,1001.9,282.4,0.2,0.6,253.3,0.00,21.8,23.7,"04:01:12",1
"16/09/19","04:20",0.6,22.1,97.2,1001.9,268.6,0.2,0.5,308.9,0.00,21.7,24.0,"04:10:08",1
"16/09/19","04:30",0.2,22.2,97.2,1001.7,305.9,0.5,0.8,333.1,0.00,21.8,23.8,"04:21:20",1
"16/09/19","04:40",0.4,22.2,97.2,1001.7,294.0,0.5,0.9,314.2,0.00,21.8,23.7,"04:30:32",1
"16/09/19","04:50",0.4,22.2,97.2,1002.2,302.2,0.2,0.6,326.4,0.00,21.8,23.8,"04:45:44",1
"16/09/19","05:00",0.2,22.2,97.2,1001.9,6.3,0.2,1.0,33.6,0.00,21.8,23.7,"04:54:24",1
"16/09/19","05:10",0.0,22.1,97.2,1002.2,228.4,0.2,0.6,210.5,0.00,21.7,23.7,"05:03:12",1
"16/09/19","05:20",0.0,22.1,97.3,1001.9,272.9,0.5,0.8,221.2,0.00,21.7,23.8,"05:12:40",1
"16/09/19","05:30",0.0,22.1,97.2,1001.9,318.5,0.5,0.8,335.0,0.00,21.7,23.9,"05:20:56",1
"16/09/19","05:40",0.0,22.1,97.3,1002.2,303.4,0.2,0.5,331.8,0.00,21.7,23.8,"05:35:12",1
"16/09/19","05:50",0.0,22.1,97.3,1001.9,276.2,0.1,0.4,255.0,0.00,21.7,23.8,"05:44:24",1
"16/09/19","06:00",0.0,22.2,97.3,1001.7,327.1,0.3,0.8,345.4,0.00,21.8,23.8,"05:57:04",1
"16/09/19","06:10",0.0,22.3,97.3,1002.2,331.1,0.1,0.4,291.4,0.00,21.9,23.7,"06:00:24",1
"16/09/19","06:20",0.0,22.3,97.3,1002.2,314.8,0.5,0.9,338.0,0.00,21.9,23.8,"06:12:40",1
"16/09/19","06:30",0.0,22.3,97.3,1001.7,308.9,0.2,0.6,321.5,0.00,21.9,23.8,"06:27:20",1
"16/09/19","06:40",0.0,22.3,97.3,1001.9,264.2,0.0,0.4,268.6,0.00,21.9,23.8,"06:30:24",1
"16/09/19","06:50",0.0,22.4,97.3,1001.9,269.3,0.1,0.4,330.6,0.00,22.0,23.6,"06:44:48",1
"16/09/19","07:00",0.0,22.4,97.4,1002.2,321.3,0.1,0.5,321.1,0.00,22.0,23.8,"06:55:20",1
"16/09/19","07:10",0.0,22.4,97.3,1002.2,339.6,0.5,1.0,338.8,0.00,22.0,23.8,"07:03:52",1
"16/09/19","07:20",0.0,22.5,97.3,1001.9,347.4,0.6,1.0,343.6,0.01,22.1,23.5,"07:12:32",1
"16/09/19","07:30",0.0,22.6,97.3,1001.9,315.8,0.5,1.0,337.3,0.01,22.2,23.8,"07:20:24",1
"16/09/19","07:40",0.0,22.6,97.2,1001.7,200.1,0.5,1.6,226.0,0.02,22.2,23.9,"07:34:48",1
"16/09/19","07:50",0.0,22.9,97.2,1002.2,48.9,0.2,1.0,146.1,0.03,22.5,23.8,"07:40:24",1
"16/09/19","08:00",0.0,23.0,97.0,1001.7,0.9,0.5,1.2,1.6,0.04,22.5,23.7,"07:54:32",1
"16/09/19","08:10",0.0,23.2,97.0,1001.7,343.0,0.2,0.8,342.9,0.07,22.7,23.7,"08:00:16",1
"16/09/19","08:20",0.0,23.5,96.5,1001.5,333.5,0.5,1.4,348.6,0.08,23.0,23.9,"08:13:36",1
"16/09/19","08:30",0.0,23.4,95.9,1001.7,332.0,0.3,1.1,12.6,0.11,22.7,23.9,"08:29:20",1
"16/09/19","08:40",0.0,24.3,92.3,1001.7,340.0,0.8,1.8,346.0,0.16,23.0,23.7,"08:38:16",1
"16/09/19","08:50",0.0,24.4,91.7,1001.7,300.9,0.6,1.7,356.5,0.12,23.0,24.0,"08:42:16",1
"16/09/19","09:00",0.0,24.4,90.1,1001.7,316.4,0.6,1.4,332.7,0.08,22.7,24.1,"08:50:56",1
"16/09/19","09:10",0.0,24.3,90.7,1001.9,311.1,0.3,1.0,11.0,0.06,22.7,24.0,"09:00:40",1
"16/09/19","09:20",0.0,24.1,89.9,1001.9,271.0,0.6,2.0,233.9,0.08,22.4,24.4,"09:10:02",1
"16/09/19","09:30",0.0,24.2,90.4,1002.2,271.0,0.5,1.6,231.5,0.08,22.6,24.1,"09:20:08",1
"16/09/19","09:40",0.0,24.2,90.2,1002.2,302.0,0.6,1.6,354.7,0.05,22.5,24.3,"09:39:52",1
"16/09/19","09:50",0.0,24.2,90.0,1002.2,316.0,0.5,1.4,339.2,0.05,22.5,24.5,"09:42:08",1
"16/09/19","10:00",0.0,24.3,90.1,1002.4,304.9,0.7,2.1,334.1,0.09,22.6,24.2,"09:53:20",1
"16/09/19","10:10",0.0,24.8,88.6,1002.2,302.6,0.6,1.7,346.4,0.14,22.8,24.6,"10:02:48",1
"16/09/19","10:20",0.0,24.9,87.6,1002.2,297.0,0.6,2.0,315.8,0.15,22.7,24.4,"10:12:24",1
"16/09/19","10:30",0.0,25.4,86.0,1001.9,293.5,0.5,1.4,344.1,0.21,22.9,24.7,"10:24:16",1
"16/09/19","10:40",0.0,25.4,84.7,1001.9,312.6,0.7,1.8,356.2,0.19,22.7,24.6,"10:39:44",1
"16/09/19","10:50",0.0,25.3,85.3,1002.2,281.3,0.6,2.8,356.2,0.11,22.7,24.6,"10:44:32",1
"16/09/19","11:00",0.0,25.2,85.3,1002.2,280.6,0.6,1.4,204.0,0.11,22.6,24.6,"10:51:12",1
"16/09/19","11:10",0.0,25.5,85.0,1001.9,291.3,0.6,1.4,351.0,0.15,22.8,24.7,"11:07:36",1
"16/09/19","11:20",0.0,25.5,84.4,1001.7,305.6,0.5,1.3,301.9,0.16,22.7,24.6,"11:18:40",1
"16/09/19","11:30",0.0,25.6,83.1,1001.9,321.0,0.5,1.4,358.7,0.16,22.6,24.7,"11:22:32",1
"16/09/19","11:40",0.0,25.7,83.3,1001.7,320.1,0.6,1.7,229.3,0.12,22.7,24.7,"11:37:12",1
"16/09/19","11:50",0.0,25.6,83.4,1002.4,288.0,0.5,2.4,8.2,0.10,22.6,25.1,"11:43:28",1
"16/09/19","12:00",0.0,25.3,84.5,1001.7,284.1,0.5,1.6,0.6,0.11,22.5,25.0,"11:56:40",1
"16/09/19","12:10",0.0,25.3,83.8,1001.5,293.0,0.5,1.4,315.3,0.12,22.4,24.9,"12:09:20",1
"16/09/19","12:20",0.0,25.5,83.8,1001.5,287.7,0.5,1.8,242.0,0.10,22.6,24.9,"12:13:04",1
"16/09/19","12:30",0.0,25.5,82.9,1001.7,286.9,0.5,1.3,348.3,0.07,22.4,25.1,"12:24:56",1
"16/09/19","12:40",0.0,25.4,83.6,1001.9,301.0,0.5,1.3,325.3,0.07,22.5,25.2,"12:38:32",1
"16/09/19","12:50",0.0,25.3,83.7,1001.5,293.3,0.5,1.1,350.9,0.08,22.4,25.0,"12:43:04",1
"16/09/19","13:00",0.0,25.2,84.2,1001.7,297.9,0.6,1.8,318.5,0.09,22.4,25.1,"12:59:36",1
"16/09/19","13:10",0.0,25.3,84.6,1001.5,310.6,0.7,1.4,319.2,0.09,22.6,25.1,"13:02:56",1
"16/09/19","13:20",0.0,24.9,84.4,1001.7,277.0,0.7,1.9,213.7,0.06,22.1,24.9,"13:11:28",1
"16/09/19","13:30",0.0,24.8,84.6,1001.0,285.1,0.6,1.4,277.4,0.05,22.1,25.1,"13:21:36",1
"16/09/19","13:40",0.0,24.7,85.7,1001.2,289.8,0.6,1.3,295.3,0.04,22.2,24.9,"13:31:12",1
"16/09/19","13:50",0.0,24.6,86.0,1000.8,310.3,0.7,1.6,322.4,0.04,22.1,25.2,"13:42:40",1
"16/09/19","14:00",0.0,24.5,85.5,1001.0,303.5,0.7,1.3,325.0,0.06,21.9,25.1,"13:51:44",1
"16/09/19","14:10",0.0,24.7,84.8,1001.0,303.0,0.7,1.9,343.3,0.08,22.0,25.2,"14:02:08",1
"16/09/19","14:20",0.0,25.2,84.0,1000.5,303.8,0.7,1.4,318.4,0.13,22.3,24.9,"14:18:24",1
"16/09/19","14:30",0.0,26.1,81.2,1000.8,302.3,0.7,2.0,25.2,0.24,22.7,25.1,"14:20:32",1
"16/09/19","14:40",0.0,26.1,79.9,1000.3,295.2,0.5,1.4,338.2,0.16,22.4,25.0,"14:37:44",1
"16/09/19","14:50",0.0,25.4,80.1,1000.8,327.7,1.5,4.2,352.6,0.14,21.8,25.3,"14:46:24",1
"16/09/19","15:00",0.0,25.1,79.4,1001.0,328.5,1.6,4.0,352.1,0.10,21.3,25.2,"14:58:48",1
"16/09/19","15:10",0.0,24.9,79.8,1001.0,324.1,1.6,3.3,349.3,0.10,21.2,25.3,"15:09:36",1
"16/09/19","15:20",0.0,24.8,79.5,1001.0,324.3,1.5,3.7,1.4,0.10,21.1,25.2,"15:13:28",1
"16/09/19","15:30",0.0,24.8,79.3,1001.0,328.3,1.5,4.1,344.5,0.07,21.0,25.2,"15:26:16",1
"16/09/19","15:40",0.0,24.5,79.2,1001.2,326.3,1.6,4.0,342.0,0.08,20.7,25.2,"15:39:52",1
"16/09/19","15:50",0.0,24.3,79.5,1001.2,334.2,1.7,4.0,352.2,0.03,20.6,25.1,"15:49:04",1
"16/09/19","16:00",0.2,23.7,81.5,1001.5,331.4,2.1,4.3,345.3,0.01,20.4,25.1,"15:52:00",1
"16/09/19","16:10",0.2,22.9,84.4,1001.5,332.8,1.5,4.8,348.7,0.00,20.2,25.2,"16:04:32",1
"16/09/19","16:20",0.0,22.7,86.5,1001.5,320.9,1.0,2.9,339.4,0.00,20.4,25.1,"16:10:56",1
"16/09/19","16:30",0.0,22.5,87.0,1001.2,306.7,1.1,2.7,24.0,0.01,20.3,25.1,"16:26:56",1
"16/09/19","16:40",0.0,22.5,87.3,1001.2,306.2,1.0,2.5,328.8,0.01,20.3,24.9,"16:39:52",1
"16/09/19","16:50",0.0,22.4,87.0,1001.2,300.8,1.2,3.3,339.6,0.02,20.2,25.0,"16:40:16",1
"16/09/19","17:00",0.0,22.5,86.9,1001.2,303.5,1.2,2.5,332.7,0.00,20.2,24.7,"16:58:32",1
"16/09/19","17:10",0.0,22.5,86.3,1001.5,308.8,1.5,2.8,328.1,0.00,20.1,24.8,"17:01:36",1
"16/09/19","17:20",0.0,22.6,86.1,1001.2,313.8,1.2,2.5,340.6,0.00,20.2,24.8,"17:11:04",1
"16/09/19","17:30",0.0,22.6,86.1,1001.7,311.5,1.2,2.5,351.5,0.00,20.2,24.5,"17:26:56",1
"16/09/19","17:40",0.0,22.6,86.1,1001.9,305.5,1.1,1.9,326.7,0.00,20.2,24.3,"17:34:24",1
"16/09/19","17:50",0.0,22.5,86.1,1001.9,304.8,1.3,2.8,334.8,0.00,20.1,24.6,"17:43:12",1
"16/09/19","18:00",0.0,22.4,85.9,1002.2,320.4,1.3,4.2,348.9,0.00,20.0,24.5,"17:51:20",1
"16/09/19","18:10",0.0,22.4,85.8,1001.9,307.4,1.1,2.2,344.9,0.00,19.9,24.6,"18:05:52",1
"16/09/19","18:20",0.0,22.4,85.9,1001.9,311.7,1.3,3.1,347.0,0.00,20.0,24.4,"18:18:08",1
"16/09/19","18:30",0.2,22.3,86.7,1001.7,302.0,1.0,2.0,343.5,0.00,20.0,24.3,"18:22:56",1
"16/09/19","18:40",0.0,22.1,87.5,1001.9,314.3,1.2,4.5,327.8,0.00,20.0,24.3,"18:35:36",1
"16/09/19","18:50",0.0,22.0,88.1,1002.2,317.6,1.0,2.5,353.6,0.00,20.0,24.2,"18:41:04",1
"16/09/19","19:00",0.0,21.8,88.7,1002.2,311.2,0.7,2.4,337.3,0.00,19.9,24.3,"18:56:08",1
"16/09/19","19:10",0.0,21.8,89.0,1002.2,307.4,0.7,1.9,336.5,0.00,19.9,24.2,"19:05:44",1
"16/09/19","19:20",0.0,21.7,88.9,1002.4,321.4,1.0,1.8,348.4,0.00,19.8,24.2,"19:13:44",1
"16/09/19","19:30",0.2,21.8,88.3,1002.4,311.4,1.0,1.9,345.9,0.00,19.8,24.1,"19:26:48",1
"16/09/19","19:40",0.0,21.9,88.1,1002.4,319.7,1.1,2.9,355.8,0.00,19.9,24.1,"19:38:48",1
"16/09/19","19:50",0.0,21.9,88.3,1002.4,307.6,0.7,1.6,345.9,0.00,19.9,24.2,"19:40:08",1
"16/09/19","20:00",0.2,21.7,88.8,1002.9,314.7,1.0,3.2,216.2,0.00,19.8,24.1,"19:55:52",1
"16/09/19","20:10",0.0,21.6,89.6,1002.6,288.2,0.7,1.4,304.7,0.00,19.9,24.1,"20:01:12",1
"16/09/19","20:20",0.0,21.5,90.1,1002.9,271.3,0.7,1.2,237.6,0.00,19.8,23.7,"20:19:20",1
"16/09/19","20:30",0.0,21.4,90.8,1003.4,281.4,0.6,1.1,238.1,0.00,19.9,23.7,"20:28:16",1
"16/09/19","20:40",0.0,21.4,91.5,1003.4,292.5,0.8,1.4,337.3,0.00,20.0,24.0,"20:36:16",1
"16/09/19","20:50",0.2,21.3,91.8,1003.4,297.2,0.5,1.2,341.1,0.00,20.0,24.0,"20:42:08",1
"16/09/19","21:00",0.2,21.1,92.4,1003.4,311.1,0.5,0.9,344.5,0.00,19.9,24.0,"20:57:04",1
"16/09/19","21:10",0.2,21.1,92.5,1002.9,325.9,0.6,2.5,342.5,0.00,19.9,23.9,"21:04:32",1
"16/09/19","21:20",0.0,21.0,92.6,1003.4,312.1,0.5,1.3,350.3,0.00,19.8,24.0,"21:10:48",1
"16/09/19","21:30",0.0,21.0,92.8,1003.6,313.7,0.5,0.9,312.8,0.00,19.8,23.7,"21:21:36",1
"16/09/19","21:40",0.2,20.9,93.1,1003.4,318.1,0.5,1.2,336.3,0.00,19.8,24.0,"21:33:44",1
"16/09/19","21:50",0.0,20.9,93.4,1003.4,299.1,0.5,1.2,328.4,0.00,19.8,23.8,"21:42:24",1
"16/09/19","22:00",0.0,20.8,93.5,1003.6,295.3,0.6,0.9,320.6,0.00,19.8,24.0,"21:59:52",1
"16/09/19","22:10",0.2,20.8,93.8,1003.4,324.3,0.7,1.3,345.3,0.00,19.8,23.8,"22:01:04",1
"16/09/19","22:20",0.2,20.7,94.0,1003.6,279.5,0.7,1.4,337.2,0.00,19.7,23.8,"22:11:20",1
"16/09/19","22:30",0.4,20.7,94.0,1003.4,295.1,0.7,1.3,262.7,0.00,19.7,23.6,"22:20:16",1
"16/09/19","22:40",0.2,20.6,94.2,1003.4,306.9,0.6,1.1,337.7,0.00,19.7,23.6,"22:32:56",1
"16/09/19","22:50",0.0,20.5,94.4,1003.4,325.5,0.6,1.2,339.3,0.00,19.6,23.6,"22:46:24",1
"16/09/19","23:00",0.2,20.5,94.5,1003.4,345.0,0.5,1.0,349.4,0.00,19.6,23.6,"22:56:08",1
"16/09/19","23:10",0.0,20.4,94.6,1003.1,331.6,0.6,1.1,355.2,0.00,19.5,23.5,"23:00:56",1
"16/09/19","23:20",0.0,20.4,94.7,1002.9,342.7,0.7,1.7,0.7,0.00,19.6,23.4,"23:12:32",1
"16/09/19","23:30",0.2,20.3,94.7,1002.9,311.3,0.7,1.3,349.8,0.00,19.5,23.7,"23:21:44",1
"16/09/19","23:40",0.2,20.3,94.7,1002.6,296.4,0.8,1.9,246.6,0.00,19.5,23.6,"23:39:04",1
"16/09/19","23:50",0.0,20.3,94.7,1002.4,289.1,1.0,2.0,246.6,0.00,19.5,23.4,"23:41:28",1
"16/09/19","24:00",0.0,20.3,94.7,1002.9,335.6,1.2,2.4,350.8,0.00,19.5,23.6,"23:54:24",1
